Regional Weather Roundup
Issued by NWS Charleston, WV

Home | Current Version | Previous Version | Text Only | Print | Product List | Glossary Off
Versions: 1 2 3 4 5 6 7 8 9 10 11 12 13 14 15 16 17 18 19 20 21 22 23 24 25 26 27 28 29 30 31 32 33 34 35 36 37 38 39 40 41 42 43 44 45 46 47 48 49 50

000
ASUS41 KRLX 312210
RWRRLX
West Virginia Regional Weather Roundup
National Weather Service Charleston WV
600 PM EDT TUE MAR 31 2015

Note: "fair" indicates few or no clouds below 12,000 feet with no
significant weather and/or obstructions to visibility.

WVZ003-312300-
Northern Panhandle of West Virginia

CITY           SKY/WX    TMP DP  RH WIND       PRES   REMARKS
WHEELING       CLOUDY    48  35  60 N20G30    29.79R
$$

WVZ009-312300-
Northwest West Virginia

CITY           SKY/WX    TMP DP  RH WIND       PRES   REMARKS
PARKERSBURG    MOSUNNY   62  37  39 NW24G33   29.80R
$$

WVZ006-312300-
Western West Virginia

CITY           SKY/WX    TMP DP  RH WIND       PRES   REMARKS
HUNTINGTON     MOSUNNY   70  28  21 NW15G32   29.76R
$$

WVZ015-312300-
West Central West Virginia

CITY           SKY/WX    TMP DP  RH WIND       PRES   REMARKS
CHARLESTON     MOSUNNY   70  28  21 NW17G32   29.72R
$$

WVZ022-031-312300-
North Central West Virginia

CITY           SKY/WX    TMP DP  RH WIND       PRES   REMARKS
CLARKSBURG     CLOUDY    62  33  33 NW22G36   29.69R
MORGANTOWN     PTSUNNY   59  33  37 NW15G26   29.72R
$$

WVZ025-035-042-045-312300-
Southern West Virginia

CITY           SKY/WX    TMP DP  RH WIND       PRES   REMARKS
BECKLEY        PTSUNNY   65  31  28 W22G37    29.72R
LOGAN          PTSUNNY   70  32  24 W22G30    29.71R
BLUEFIELD      PTSUNNY   67  31  26 W13G29    29.75F
LEWISBURG      CLOUDY    68  30  24 W13G22    29.69R
$$

WVZ047-312300-
Northern Mountains of West Virginia

CITY           SKY/WX    TMP DP  RH WIND       PRES   REMARKS
ELKINS         PTSUNNY   61  29  29 NW26G35   29.69R
$$

WVZ052-312300-
Eastern Panhandle of West Virginia

CITY           SKY/WX    TMP DP  RH WIND       PRES   REMARKS
MARTINSBURG    CLOUDY    57  38  48 N17G26    29.66R
PETERSBURG     CLOUDY    64  28  25 W12G23    29.62S
$$


USA.gov is the U.S. government's official web portal to all federal, state and local government web resources and services.